Location: Kapuskasing
(49.3803°N, 82.4001°W)
Time: 12:57:40
(UTC-04:00)

ISS - Visible Passes

Search period start: 19 April 2024 00:00
Search period end: 29 April 2024 00:00
Orbit: 412 x 418 km, 51.6° (Epoch: 19 April)

Date Brightness Start Highest point End Pass type
(mag) Time Alt. Az. Time Alt. Az. Time Alt. Az.
20 Apr -1.0 05:46:49 10° SSE 05:48:00 11° SE 05:49:11 10° ESE visible
22 Apr -2.0 05:43:48 10° SSW 05:46:34 24° SE 05:49:21 10° E visible
23 Apr -1.5 04:55:44 10° S 04:57:48 16° SE 04:59:58 10° E visible
24 Apr -1.1 04:08:38 10° SE 04:09:02 10° SE 04:09:39 10° ESE visible
24 Apr -3.2 05:41:53 10° SW 05:45:06 49° SSE 05:48:21 10° ENE visible
25 Apr -2.7 04:54:17 19° SSW 04:56:09 33° SSE 04:59:11 10° E visible
26 Apr -2.1 04:06:59 22° SSE 04:07:11 22° SE 04:09:51 10° E visible
26 Apr -3.8 05:40:14 10° WSW 05:43:34 89° S 05:46:55 10° ENE visible
27 Apr -1.1 03:19:35 12° ESE 03:19:35 12° ESE 03:20:12 10° ESE visible
27 Apr -3.7 04:52:26 21° SW 04:54:26 66° SSE 04:57:45 10° ENE visible
28 Apr -3.3 04:04:57 43° S 04:05:18 45° SSE 04:08:30 10° ENE visible
